COSMOS 791

Satellite information

Favourite Embed

Satellite Type and Status

PAYLOADIN ORBIT

Key statistics

Satellite COSMOS 791 at a glance.

Uptime

17996

Days in orbit

Revolutions

≈ 12.6

Per day

Orbit

LEO

Low Earth Orbit

Inclination

74.1

Latest

Satellite identification and parameters

Extended collection of information and parameters for COSMOS 791.

Object identification

Identified? True

Debris? False

Object name: COSMOS 791

International designator: 1976-008A

Object number (NORAD): 8607

Object ID (CCSDS): 8607

Country: COMMONWEALTH OF INDEPENDENT STATES (CIS)

Current information (Y/N): Y

RCS size: MEDIUM

Orbital parameters

Period: 114.738 minutes

Inclination: 74.0547 deg

SMA: 7821.629 km

Apoapsis: 1485.972 km

Periapsis: 1401.017 km

RAAN: 319.7656 deg

Eccentricy: 0.0054308

Argument of periapsis: 124.0402 deg

Mean anomaly: 340.7106 deg

Mean motion: 12.55038077 rev/day

Mean motion (dot): 0.0000001 rev/day2

B* drag term: 0.00015895 1/REarth

Two-line elements (TLE)

Creation date: May 5, 2025, 2:11 a.m.

Reference frame: TEME

Reference center: EARTH

Epoch: May 4, 2025, 8:30 p.m. UTC

TLE line 0: 0 COSMOS 791

TLE line 1: 1 08607U 76008A 25124.85447330 .00000010 00000-0 15895-3 0 9992

TLE line 2: 2 08607 74.0547 319.7656 0054308 124.0402 340.7106 12.55038077257081

Live tracking on map

Real-time ground track for satellite COSMOS 791.

In-orbit conjunctions

There are no conjunctions computed for COSMOS 791, at the moment. Check back to stay up to date, as we update our databases every day.

Go to all conjunctions

Associated space launch

Military communications satellites

COSMOS 791 was lifted into orbit during the mission ‘Kosmos-3M | Strela-1M 105-112’, on board a Kosmos-3M space rocket.

The launch took place on Jan. 28, 1976, 10:39 a.m. from 132/1 (132L).

For more information about the launch, click the button.

Launch to space Kosmos-3M | Strela-1M 105-112
Kosmos-3M | Strela-1M 105-112

Agency: N/A

Status: Launch Successful

Launch date: Jan. 28, 1976, 10:39 a.m. UTC

Rocket: Kosmos-3M

Launch pad: 132/1 (132L)

Location: Plesetsk Cosmodrome, Russian Federation

...

Latest news about this satellite

There are no fresh news available about this satellite. Check back as we update our databases every day.


Newsletter sign-up

Weekly statistics, charts and insights to help you stay on top of the space industry.